This is the latest recevied weather packets stored in our database for station/object AI5YA-13. If no packets are shown the sender has not sent any weather packets the latest 10 day(s).
| Time | Temp. | Humidity | Pressure | Rain* | Wind** | Luminosity | Snow |
|---|---|---|---|---|---|---|---|
| 1777848337 | 23.89° C | 37% | 1016 hPa | 0 mm | - | 367 W/m² | - |
| 1777848034 | 24.44° C | 36% | 1016.2 hPa | 0 mm | - | 224 W/m² | - |
| 1777847732 | 24.44° C | 36% | 1016.4 hPa | 0 mm | - | 334 W/m² | - |
| 1777847428 | 24.44° C | 36% | 1016.3 hPa | 0 mm | - | 408 W/m² | - |
| 1777847126 | 23.89° C | 38% | 1016.3 hPa | 0 mm | - | 337 W/m² | - |
| 1777846824 | 23.89° C | 37% | 1016.3 hPa | 0 mm | - | 229 W/m² | - |
| 1777846522 | 23.33° C | 38% | 1016.5 hPa | 0 mm | - | 238 W/m² | - |
| 1777846219 | 23.89° C | 37% | 1016.6 hPa | 0 mm | - | 188 W/m² | - |
| 1777845915 | 24.44° C | 36% | 1016.4 hPa | 0 mm | - | 419 W/m² | - |
| 1777845612 | 24.44° C | 36% | 1016.6 hPa | 0 mm | - | 472 W/m² | - |
| 1777845309 | 24.44° C | 37% | 1016.6 hPa | 0 mm | - | 495 W/m² | - |
| 1777845006 | 25° C | 36% | 1016.6 hPa | 0 mm | - | 552 W/m² | - |
| 1777844704 | 24.44° C | 36% | 1016.6 hPa | 0 mm | - | 599 W/m² | - |
| 1777844401 | 23.89° C | 37% | 1016.8 hPa | 0 mm | - | 544 W/m² | - |
| 1777844099 | 23.33° C | 38% | 1017 hPa | 0 mm | - | 350 W/m² | - |
| 1777843795 | 23.89° C | 37% | 1017.1 hPa | 0 mm | - | 268 W/m² | - |
| 1777843493 | 24.44° C | 36% | 1017 hPa | 0 mm | - | 341 W/m² | - |
| 1777843190 | 23.89° C | 37% | 1016.9 hPa | 0 mm | - | 495 W/m² | - |
| 1777842887 | 23.33° C | 39% | 1017.4 hPa | 0 mm | - | 376 W/m² | - |
| 1777842583 | 23.89° C | 37% | 1017.1 hPa | 0 mm | - | 334 W/m² | - |
| 1777842280 | 23.89° C | 37% | 1017.7 hPa | 0 mm | - | 455 W/m² | - |
| 1777841974 | 23.89° C | 38% | 1017.6 hPa | 0 mm | - | 439 W/m² | - |
| 1777841671 | 23.89° C | 38% | 1017.8 hPa | 0 mm | - | 555 W/m² | - |
| 1777841367 | 23.89° C | 38% | 1018 hPa | 0 mm | - | 636 W/m² | - |
| 1777841065 | 23.89° C | 37% | 1018 hPa | 0 mm | - | 553 W/m² | - |
* Rain latest hour (hover to see other rain measurements)
** Current wind speed in m/s (hover to see current wind gust speed)